Needles, CA

10:55 AM PDT on June 23, 2017 (GMT -0700)
Needles

Weather History for KEED - February, 2012

Change the Weather History Date:

Saturday, February 4, 2012

  Actual Average Record
Temperature  
Mean Temperature 60 °F 56 °F  
Max Temperature 69 °F 68 °F 84 °F (1935)
Min Temperature 50 °F 45 °F 31 °F (1922)
Degree Days  
Heating Degree Days 6    
Cooling Degree Days 0    
Growing Degree Days 10 (Base 50)    
Moisture  
Dew Point 22 °F    
Average Humidity 25    
Maximum Humidity 36    
Minimum Humidity 17    
Precipitation  
Precipitation 0.00 in 0.03 in 1.52 in (1998)
Month to date precipitation 0.11  
Year to date precipitation 0.83  
Sea Level Pressure  
Sea Level Pressure 30.06 in    
Wind  
Wind Speed 10 mph (North)    
Max Wind Speed 18 mph    
Max Gust Speed 23 mph    
Visibility 10 miles    
Events      
T = Trace of Precipitation, MM = Missing Value Source: NWS Daily Summary

Daily Weather History Graph

Daily Weather History Graph

Search for Another Location

Airport or City:

Trip Planner

Search our weather history database for the weather conditions in past years. The results will help you decide how hot, cold, wet, or windy it might be!

Date:

Astronomy

Feb. 04, 2012 Rise Set
Actual Time 6:34 AM PST 5:10 PM PST
Civil Twilight 6:08 AM PST 5:36 PM PST
Nautical Twilight 5:38 AM PST 6:06 PM PST
Astronomical Twilight 5:08 AM PST 6:36 PM PST
Moon 2:16 PM PST (2/4) 3:59 AM PST (2/4)
Length of Visible Light 11h 28m
Length of Day
10h 35m
Waxing Gibbous, 89% of the Moon is Illuminated
Feb 4
Waxing Gibbous
Feb 7
Full
Feb 14
Last Quarter
Feb 21
New
Feb 29
First Quarter

Hourly Weather History & Observations

Time (PST) Temp. Dew Point Humidity Pressure Visibility Wind Dir Wind Speed Gust Speed Precip Events Conditions
12:56 AM 54.0 °F 21.9 °F 29% 30.06 in 10.0 mi North 10.4 mph - N/A   Clear
1:56 AM 53.1 °F 23.0 °F 31% 30.06 in 10.0 mi North 9.2 mph - N/A   Clear
2:56 AM 52.0 °F 24.1 °F 34% 30.06 in 10.0 mi North 10.4 mph - N/A   Clear
3:56 AM 50.0 °F 23.0 °F 35% 30.07 in 10.0 mi North 8.1 mph - N/A   Clear
4:56 AM 50.0 °F 24.1 °F 36% 30.08 in 10.0 mi NNW 5.8 mph - N/A   Clear
5:56 AM 50.0 °F 24.1 °F 36% 30.10 in 10.0 mi NNW 6.9 mph - N/A   Clear
6:56 AM 50.0 °F 24.1 °F 36% 30.12 in 10.0 mi NNW 6.9 mph - N/A   Clear
7:56 AM 54.0 °F 24.1 °F 31% 30.13 in 10.0 mi North 11.5 mph - N/A   Clear
8:56 AM 57.0 °F 24.1 °F 28% 30.13 in 10.0 mi North 11.5 mph - N/A   Clear
9:56 AM 61.0 °F 24.1 °F 24% 30.13 in 10.0 mi NNE 18.4 mph 23.0 mph N/A   Clear
10:56 AM 63.0 °F 24.1 °F 23% 30.10 in 10.0 mi NNE 18.4 mph - N/A   Clear
11:56 AM 66.0 °F 24.1 °F 20% 30.06 in 10.0 mi North 15.0 mph - N/A   Clear
12:56 PM 66.9 °F 23.0 °F 19% 30.04 in 10.0 mi NNE 12.7 mph - N/A   Clear
1:56 PM 69.1 °F 21.9 °F 17% 30.01 in 10.0 mi North 11.5 mph - N/A   Clear
2:56 PM 69.1 °F 21.9 °F 17% 30.00 in 10.0 mi NNE 11.5 mph - N/A   Clear
3:56 PM 68.0 °F 21.0 °F 17% 30.00 in 10.0 mi NNE 16.1 mph - N/A   Clear
4:56 PM 64.9 °F 21.0 °F 19% 30.01 in 10.0 mi NNE 15.0 mph - N/A   Clear
5:56 PM 62.1 °F 19.9 °F 20% 30.02 in 10.0 mi North 10.4 mph - N/A   Clear
6:56 PM 61.0 °F 19.9 °F 21% 30.03 in 10.0 mi NNW 9.2 mph - N/A   Clear
7:56 PM 60.1 °F 19.9 °F 21% 30.03 in 10.0 mi NNW 8.1 mph - N/A   Clear
8:56 PM 55.9 °F 19.9 °F 25% 30.03 in 10.0 mi WNW 6.9 mph - N/A   Clear
9:56 PM 55.9 °F 19.0 °F 24% 30.03 in 10.0 mi WNW 5.8 mph - N/A   Clear
10:56 PM 55.9 °F 19.9 °F 25% 30.03 in 10.0 mi NW 6.9 mph - N/A   Clear
11:56 PM 57.0 °F 19.9 °F 24% 30.02 in 10.0 mi North 9.2 mph - N/A   Clear